Location: Dos Palmas
(32.4468°N, 116.8732°W)
Time: 05:43:52
(UTC+00:00)

Cosmos 1707 - Pass Details

Date: 20 June 2021
Orbit: 514 x 529 km, 82.5° (Epoch: 29 July)

Event Time Altitude Azimuth Distance (km) Brightness Sun altitude
Exits shadow 04:06:58 - 189° (S) 2,428 5.8 -13.0°
Reaches altitude 10° 04:08:35 10° 191° (S) 1,754 5.1 -13.3°
Maximum altitude 04:12:26 74° 277° (W) 550 2.9 -13.9°
Drops below altitude 10° 04:16:19 10° 2° (N) 1,774 5.9 -14.5°
Sets 04:18:29 0° 4° (N) 2,669 6.9 -14.9°
